Kahului, HI

12:39 AM HST on May 27, 2017 (GMT -1000)
Kahului

Weather History for PHOG - September, 2012

Change the Weather History Date:

Tuesday, September 18, 2012

  Actual Average Record
Temperature  
Mean Temperature 77 °F 79 °F  
Max Temperature 86 °F 88 °F 94 °F (1953)
Min Temperature 67 °F 70 °F 61 °F (1952)
Degree Days  
Heating Degree Days 0 0  
Month to date heating degree days 12 0  
Since 1 July heating degree days 12 0  
Cooling Degree Days 12 14  
Month to date cooling degree days 234 254  
Year to date cooling degree days 2780 2796  
Growing Degree Days 26 (Base 50)    
Moisture  
Dew Point 64 °F    
Average Humidity 63    
Maximum Humidity 84    
Minimum Humidity 42    
Precipitation  
Precipitation 0.01 in 0.01 in 0.81 in (1994)
Month to date precipitation 0.09 0.21  
Year to date precipitation 4.42 10.91  
Snow  
Snow 0.00 in - - ()
Month to date snowfall 0.0  
Since 1 July snowfall 0.0  
Since 1 September snowfall 0.0  
Snow Depth 0.00 in    
Sea Level Pressure  
Sea Level Pressure 29.98 in    
Wind  
Wind Speed 11 mph (ENE)    
Max Wind Speed 25 mph    
Max Gust Speed 31 mph    
Visibility 10 miles    
Events      
T = Trace of Precipitation, MM = Missing Value Source: NWS Daily Summary

Daily Weather History Graph

Daily Weather History Graph

Search for Another Location

Airport or City:

Trip Planner

Search our weather history database for the weather conditions in past years. The results will help you decide how hot, cold, wet, or windy it might be!

Date:

Astronomy

Sep. 18, 2012 Rise Set
Actual Time 6:13 AM HST 6:25 PM HST
Civil Twilight 5:51 AM HST 6:47 PM HST
Nautical Twilight 5:25 AM HST 7:12 PM HST
Astronomical Twilight 4:59 AM HST 7:38 PM HST
Moon 8:54 AM HST (9/18) 8:31 PM HST (9/18)
Length of Visible Light 12h 55m
Length of Day
12h 11m
Waxing Crescent, 11% of the Moon is Illuminated
Sep 18
Waxing Crescent
Sep 22
First Quarter
Sep 29
Full
Oct 7
Last Quarter
Oct 15
New

Hourly Weather History & Observations

Time (HST) Temp. Heat Index Dew Point Humidity Pressure Visibility Wind Dir Wind Speed Gust Speed Precip Events Conditions
12:54 AM 71.1 °F - 66.0 °F 84% 30.00 in 10.0 mi NE 5.8 mph - 0.01 in   Overcast
1:54 AM 71.1 °F - 66.0 °F 84% 29.99 in 10.0 mi NE 8.1 mph 20.7 mph N/A   Mostly Cloudy
2:54 AM 73.0 °F - 64.9 °F 76% 29.97 in 10.0 mi East 8.1 mph - 0.00 in   Overcast
3:54 AM 72.0 °F - 64.9 °F 78% 29.96 in 10.0 mi East 8.1 mph - 0.00 in   Overcast
4:54 AM 71.1 °F - 64.0 °F 78% 29.96 in 10.0 mi South 5.8 mph - N/A   Overcast
5:54 AM 70.0 °F - 60.1 °F 71% 29.99 in 10.0 mi ESE 5.8 mph - N/A   Scattered Clouds
6:54 AM 68.0 °F - 60.1 °F 76% 30.01 in 10.0 mi Calm Calm - N/A   Clear
7:54 AM 75.9 °F - 63.0 °F 64% 30.01 in 10.0 mi NNE 3.5 mph - N/A   Clear
8:34 AM 78.8 °F - 64.4 °F 61% 30.00 in 10.0 mi ENE 9.2 mph 17.3 mph N/A   Clear
8:54 AM 81.0 °F 82.5 °F 64.0 °F 56% 30.02 in 10.0 mi ENE 12.7 mph - N/A   Partly Cloudy
9:54 AM 82.0 °F 83.8 °F 64.9 °F 56% 30.02 in 10.0 mi ENE 13.8 mph 21.9 mph N/A   Scattered Clouds
10:54 AM 82.9 °F 84.4 °F 64.0 °F 53% 30.01 in 10.0 mi ENE 17.3 mph 23.0 mph N/A   Scattered Clouds
11:54 AM 84.9 °F 86.6 °F 64.9 °F 51% 29.99 in 10.0 mi NE 19.6 mph 29.9 mph N/A   Scattered Clouds
12:54 PM 86.0 °F 86.3 °F 62.1 °F 44% 29.97 in 10.0 mi ENE 18.4 mph 27.6 mph N/A   Partly Cloudy
1:54 PM 86.0 °F 86.1 °F 61.0 °F 43% 29.95 in 10.0 mi NE 21.9 mph 26.5 mph N/A   Scattered Clouds
2:54 PM 84.9 °F 86.6 °F 64.9 °F 51% 29.93 in 10.0 mi NE 20.7 mph - N/A   Scattered Clouds
3:54 PM 81.0 °F 82.7 °F 64.9 °F 58% 29.91 in 10.0 mi ENE 17.3 mph 26.5 mph N/A   Partly Cloudy
4:54 PM 80.1 °F 81.9 °F 64.9 °F 60% 29.92 in 10.0 mi ENE 17.3 mph 24.2 mph N/A   Partly Cloudy
5:54 PM 78.1 °F - 64.9 °F 64% 29.94 in 10.0 mi ENE 12.7 mph 25.3 mph N/A   Scattered Clouds
6:54 PM 77.0 °F - 63.0 °F 62% 29.96 in 10.0 mi East 10.4 mph - N/A   Scattered Clouds
7:54 PM 75.9 °F - 66.0 °F 71% 29.98 in 10.0 mi East 6.9 mph - N/A   Overcast
8:54 PM 75.9 °F - 66.0 °F 71% 30.00 in 10.0 mi ESE 8.1 mph - N/A   Scattered Clouds
9:54 PM 75.0 °F - 64.0 °F 69% 30.02 in 10.0 mi ENE 3.5 mph - N/A   Partly Cloudy
10:54 PM 73.0 °F - 64.0 °F 73% 30.01 in 10.0 mi Calm Calm - N/A   Clear
11:54 PM 71.1 °F - 64.0 °F 78% 30.01 in 10.0 mi ESE 4.6 mph - N/A   Clear